EZY56LC EGGW-EGJJ

Flight info

Callsign EZY56LC
Flight time N/A
Altitude 28000
Route RODNI N27 ICTAM Q63 CPT Y321 PEPIS Q41 SAM N63 LELNA
Aircraft A319/M-SDE3FGHIRWY/LB1

Departure

Time 2026-05-05 18:04
Airport London Luton Airport (EGGW)

Arrival

Time N/A
Airport Jersey Airport (EGJJ)
Time Latitude Longitude Altitude Speed Heading
2026-05-05 17:49 51.87956 -0.37898 534 ft 0 kts 127°
2026-05-05 17:55 51.87963 -0.37913 534 ft 3 kts 127°
2026-05-05 17:56 51.87974 -0.37937 534 ft 3 kts 127°
2026-05-05 17:56 51.87988 -0.37955 534 ft 3 kts 199°
2026-05-05 17:56 51.87994 -0.37951 534 ft 0 kts 218°
2026-05-05 17:58 51.87991 -0.37955 534 ft 2 kts 219°
2026-05-05 17:58 51.87933 -0.38012 534 ft 14 kts 196°
2026-05-05 17:58 51.87839 -0.37972 534 ft 14 kts 138°
2026-05-05 17:58 51.87780 -0.37839 534 ft 15 kts 120°
2026-05-05 17:59 51.87736 -0.37687 534 ft 15 kts 113°
2026-05-05 17:59 51.87691 -0.37533 534 ft 16 kts 125°
2026-05-05 17:59 51.87605 -0.37451 536 ft 14 kts 169°
2026-05-05 17:59 51.87519 -0.37504 536 ft 14 kts 232°
2026-05-05 18:00 51.87483 -0.37650 536 ft 13 kts 252°
2026-05-05 18:00 51.87474 -0.37723 536 ft 0 kts 259°
2026-05-05 18:00 51.87474 -0.37727 536 ft 1 kts 259°
2026-05-05 18:01 51.87472 -0.37741 536 ft 2 kts 259°
2026-05-05 18:01 51.87469 -0.37763 536 ft 2 kts 259°
2026-05-05 18:01 51.87465 -0.37794 536 ft 3 kts 257°
2026-05-05 18:01 51.87460 -0.37837 536 ft 4 kts 257°
2026-05-05 18:02 51.87453 -0.37887 536 ft 5 kts 257°
2026-05-05 18:02 51.87442 -0.37945 536 ft 6 kts 249°
2026-05-05 18:02 51.87423 -0.38016 536 ft 8 kts 230°
2026-05-05 18:02 51.87372 -0.38085 535 ft 12 kts 206°
2026-05-05 18:03 51.87285 -0.38113 533 ft 11 kts 173°
2026-05-05 18:03 51.87251 -0.38092 533 ft 4 kts 128°
2026-05-05 18:03 51.87253 -0.38059 533 ft 0 kts 77°
2026-05-05 18:03 51.87255 -0.38047 533 ft 11 kts 77°
2026-05-05 18:04 51.87351 -0.37489 538 ft 90 kts 75°
2026-05-05 18:04 51.87578 -0.36183 591 ft 143 kts 71°
2026-05-05 18:04 51.87814 -0.34644 1249 ft 139 kts 72°
2026-05-05 18:04 51.88081 -0.33132 1931 ft 144 kts 70°
2026-05-05 18:05 51.88389 -0.31463 2369 ft 165 kts 70°
2026-05-05 18:05 51.88741 -0.29556 2769 ft 188 kts 71°
2026-05-05 18:05 51.89119 -0.27442 3280 ft 203 kts 73°
2026-05-05 18:05 51.89088 -0.25121 3947 ft 214 kts 104°
2026-05-05 18:06 51.88260 -0.23118 3986 ft 219 kts 141°
2026-05-05 18:06 51.87356 -0.22392 3986 ft 221 kts 165°
2026-05-05 18:06 51.85356 -0.22810 3983 ft 222 kts 213°
2026-05-05 18:06 51.84323 -0.24591 3983 ft 218 kts 248°
2026-05-05 18:07 51.83920 -0.26906 3986 ft 217 kts 261°
2026-05-05 18:07 51.83570 -0.29351 4118 ft 235 kts 259°
2026-05-05 18:07 51.83171 -0.32057 4637 ft 260 kts 258°
2026-05-05 18:07 51.82731 -0.34973 5431 ft 271 kts 258°
2026-05-05 18:08 51.82274 -0.37953 6440 ft 274 kts 258°
2026-05-05 18:08 51.81812 -0.40964 7417 ft 277 kts 258°
2026-05-05 18:08 51.81345 -0.43999 8424 ft 279 kts 258°
2026-05-05 18:08 51.80875 -0.47061 9395 ft 283 kts 258°
2026-05-05 18:09 51.80398 -0.50177 9794 ft 287 kts 258°
2026-05-05 18:09 51.79916 -0.53348 10190 ft 299 kts 258°
2026-05-05 18:09 51.79403 -0.56737 10513 ft 323 kts 258°
2026-05-05 18:09 51.78854 -0.60382 10865 ft 343 kts 257°
2026-05-05 18:10 51.78275 -0.64173 11537 ft 351 kts 257°
2026-05-05 18:10 51.77680 -0.68019 12311 ft 355 kts 257°
2026-05-05 18:10 51.77083 -0.71865 13083 ft 360 kts 257°
2026-05-05 18:10 51.76390 -0.75768 13842 ft 365 kts 250°
2026-05-05 18:11 51.75261 -0.79456 14533 ft 370 kts 239°
2026-05-05 18:11 51.73698 -0.82772 14845 ft 373 kts 227°
2026-05-05 18:11 51.71866 -0.85744 14935 ft 373 kts 225°
2026-05-05 18:11 51.70021 -0.88698 15064 ft 376 kts 225°
2026-05-05 18:12 51.68156 -0.91673 15802 ft 377 kts 225°
2026-05-05 18:12 51.66282 -0.94658 16526 ft 380 kts 225°
2026-05-05 18:12 51.64390 -0.97675 17222 ft 384 kts 225°
2026-05-05 18:12 51.62485 -1.00718 17925 ft 387 kts 225°
2026-05-05 18:13 51.60563 -1.03792 18555 ft 391 kts 225°
2026-05-05 18:13 51.58629 -1.06887 19170 ft 393 kts 225°
2026-05-05 18:13 51.56708 -1.09955 19828 ft 395 kts 225°
2026-05-05 18:13 51.54750 -1.13071 20404 ft 398 kts 225°
2026-05-05 18:14 51.52776 -1.16211 20983 ft 401 kts 225°
2026-05-05 18:14 51.50623 -1.19077 21542 ft 405 kts 213°
2026-05-05 18:14 51.48069 -1.21018 22092 ft 410 kts 200°
2026-05-05 18:14 51.45287 -1.22100 22615 ft 414 kts 189°
2026-05-05 18:15 51.42395 -1.22465 23156 ft 418 kts 184°
2026-05-05 18:15 51.39473 -1.22689 23646 ft 421 kts 185°